Simultaneous Nadir Overpasses (SNOs) Predictions

Prediction of SNOs over PacNW region [( 10.00, 139.50) to ( 22.70, 165.60)] between AQUA and NPP Satellites:

Table of predicted SNOs over PacNW region for the next 30.0 days since TLE Epoch: 4/10/2021
Index Date (AQUA) Time (AQUA) AQUA Lat,Lon Date (NPP) Time (NPP) NPP Lat,Lon Distance(km) Time Diff (sec)
1 04/17/2021 15:09:48 22.58, 159.84 04/17/2021 15:10:22 23.14, 157.31 266.70 34
2 04/25/2021 15:59:10 22.63, 147.50 04/25/2021 16:01:01 23.24, 144.67 298.09 111
3 05/03/2021 15:09:39 22.61, 159.87 05/03/2021 15:10:13 23.15, 157.35 264.87 34
